Flag for Russia Weather past 2 weeks in Surgut, Russia

Now
54 °F

Partly sunny.


Feels Like: 51 °F
Forecast: 32 / 42 °F
Wind: 8 mph from West

Location: Surgut Airport

Current Time: Sep 24, 2014 at 10:58:35 AM

Latest Report: Sep 24, 2014 at 10:30 AM


Visibility: 4 mi

Pressure: 30.01 "Hg

Humidity: 67%

Dew point: 43 °F

Location of SurgutLocation

Historic Weather in Surgut — Graph

°F

Surgut temperature yesterday

Maximum temperature yesterday: 61 °F (at 2:30 PM)
Minimum temperature yesterday: 45 °F (at 6:00 AM)
Average temperature yesterday: 52 °F

Past Weeks' High & Low Weather Summary

 TemperatureHumidityPressure
High61 °F (Sep 23, 2:30 PM)100% (Sep 10, 8:00 AM)30.12 "Hg (Sep 10, 8:00 AM)
Low30 °F (Sep 21, 4:30 AM)50% (Sep 21, 5:00 PM)29.15 "Hg (Sep 18, 3:00 AM)
Average43 °F85%29.76 "Hg
* Reported Sep 9 9:00 AM — Sep 24 9:30 AM, Surgut, Weather by CustomWeather, © 2014

Note: Actual official high and low records may vary slightly from our data, if they occured in-between our weather recording intervals... More about our weather records

Advertising

Surgut weather history for previous 24 hours

 ConditionsComfort  
Time TempWeatherWind HumidityBarometerVisibility
9:30 AM
Sep 24
48 °FScattered clouds.8 mph76%30.01 "Hg4 mi
9:00 AM46 °FScattered clouds.6 mph82%30.01 "Hg4 mi
8:30 AM45 °FPassing clouds.6 mph87%30.01 "Hg4 mi
8:00 AM43 °FPassing clouds.6 mph93%30.01 "Hg4 mi
7:30 AM41 °FPassing clouds.6 mph93%30.01 "Hg4 mi
7:00 AM41 °FClear.6 mph100%30.01 "Hg4 mi
6:30 AM41 °FClear.6 mph93%30.01 "Hg4 mi
6:00 AM43 °FClear.6 mph93%30.01 "Hg4 mi
5:30 AM41 °FClear.6 mph100%30.01 "Hg4 mi
5:00 AM43 °FClear.6 mph93%30.01 "Hg4 mi
4:30 AM43 °FClear.6 mph93%30.01 "Hg4 mi
4:00 AM43 °FClear.6 mph93%30.01 "Hg4 mi
3:30 AM43 °FClear.6 mph93%30.01 "Hg4 mi
3:00 AM45 °FClear.6 mph87%30.01 "Hg4 mi
2:30 AM46 °FClear.6 mph87%30.01 "Hg4 mi
2:00 AM46 °FClear.8 mph87%30.01 "Hg4 mi
1:30 AM48 °FClear.8 mph82%30.01 "Hg4 mi
1:00 AM48 °FClear.8 mph82%30.01 "Hg4 mi
12:30 AM46 °FClear.6 mph93%30.01 "Hg4 mi
12:00 AM46 °FClear.6 mph87%30.01 "Hg4 mi
11:30 PM
Sep 23
48 °FClear.6 mph87%30.01 "Hg4 mi
11:00 PM50 °FClear.6 mph82%30.01 "Hg4 mi
10:30 PM50 °FClear.6 mph82%30.01 "Hg4 mi
10:00 PM52 °FClear.8 mph82%30.01 "Hg4 mi
9:30 PM52 °FClear.6 mph82%30.01 "Hg4 mi
9:00 PM52 °FClear.6 mph82%30.01 "Hg4 mi
8:30 PM54 °FClear.6 mph77%30.01 "Hg4 mi
8:00 PM54 °FScattered clouds.3 mph77%30.01 "Hg4 mi
7:30 PM55 °FPartly sunny.10 mph72%30.01 "Hg4 mi
7:00 PM57 °FPartly sunny.10 mph67%30.01 "Hg4 mi
6:30 PM57 °FPartly sunny.10 mph67%30.01 "Hg4 mi
6:00 PM59 °FPartly sunny.10 mph63%29.98 "Hg4 mi
5:30 PM59 °FScattered clouds.10 mph63%29.98 "Hg4 mi
5:00 PM61 °FScattered clouds.10 mph59%29.98 "Hg4 mi
4:30 PM61 °FScattered clouds.10 mph59%29.98 "Hg4 mi
4:00 PM61 °FScattered clouds.13 mph59%29.98 "Hg4 mi
3:30 PM61 °FScattered clouds.15 mph59%29.98 "Hg4 mi
3:00 PM61 °FScattered clouds.10 mph55%29.98 "Hg4 mi
2:30 PM61 °FScattered clouds.8 mph59%29.98 "Hg4 mi
2:00 PM59 °FSunny.10 mph63%29.98 "Hg4 mi
1:30 PM57 °FScattered clouds.13 mph67%29.95 "Hg4 mi
1:00 PM57 °FScattered clouds.13 mph67%29.95 "Hg4 mi
12:30 PM55 °FPartly sunny.10 mph72%29.95 "Hg4 mi
12:00 PM52 °FPartly sunny.8 mph82%29.95 "Hg4 mi
11:30 AM52 °FPartly sunny.8 mph82%29.95 "Hg4 mi
11:00 AM50 °FPartly sunny.8 mph82%29.95 "Hg4 mi
10:30 AM50 °FPartly sunny.8 mph82%29.95 "Hg4 mi
10:00 AM48 °FPartly sunny.8 mph87%29.95 "Hg4 mi
Weather by CustomWeather, © 2014

See weather overviewHow to use our weather pages